When you browse on this site, cookies collect data to enhance your experience and personalize the content and advertising you see.
Visit our Privacy Policy to learn more. By continuing to use the site, you agree to this use of cookies and data.
  • In Latvia
  • List of Countries
  • For 7 days
  • Water Temperature
  • Weather Map
  • Weather Widgets
  • user-avatar
    Login

    Hourly Weather Jewłach

    Today, 18 August, Sunday

    Time Temperature Precipitation Wind Pressure Humidity
    00:00 +25°C° 0 mm 2 mps 757 mmHg 43%
    01:00 +25°C° 0 mm 2 mps 757 mmHg 46%
    02:00 +24°C° 0 mm 2 mps 757 mmHg 49%
    03:00 +24°C° 0 mm 2 mps 757 mmHg 50%
    04:00 +24°C° 0 mm 1 mps 757 mmHg 49%
    05:00 +24°C° 0 mm 1 mps 757 mmHg 49%
    06:00 +25°C° 0 mm 1 mps 758 mmHg 48%
    07:00 +27°C° 0 mm 1 mps 757 mmHg 40%
    08:00 +30°C° 0 mm 2 mps 757 mmHg 32%
    09:00 +35°C° 0 mm 3 mps 757 mmHg 24%
    10:00 +36°C° 0 mm 3 mps 757 mmHg 21%
    11:00 +38°C° 0 mm 4 mps 757 mmHg 18%
    12:00 +41°C° 0 mm 5 mps 756 mmHg 15%
    13:00 +42°C° 0 mm 5 mps 756 mmHg 14%
    14:00 +42°C° 0 mm 6 mps 756 mmHg 13%
    15:00 +44°C° 0 mm 6 mps 755 mmHg 12%
    16:00 +42°C° 0 mm 6 mps 755 mmHg 14%
    17:00 +41°C° 0 mm 7 mps 755 mmHg 15%
    18:00 +40°C° 0 mm 7 mps 755 mmHg 16%
    19:00 +36°C° 0 mm 6 mps 756 mmHg 19%
    20:00 +33°C° 0 mm 5 mps 757 mmHg 22%
    21:00 +29°C° 0 mm 4 mps 757 mmHg 25%
    22:00 +28°C° 0 mm 3 mps 757 mmHg 28%
    23:00 +26°C° 0 mm 3 mps 757 mmHg 30%

    Tomorrow, 19 August, Monday

    Time Temperature Precipitation Wind Pressure Humidity
    00:00 +25°C° 0 mm 2 mps 757 mmHg 33%
    01:00 +25°C° 0 mm 2 mps 758 mmHg 36%
    02:00 +24°C° 0 mm 1 mps 758 mmHg 40%
    03:00 +23°C° 0 mm 1 mps 758 mmHg 43%
    04:00 +23°C° 0 mm 1 mps 758 mmHg 43%
    05:00 +22°C° 0 mm 0 mps 759 mmHg 43%
    06:00 +22°C° 0 mm 0 mps 759 mmHg 43%
    07:00 +27°C° 0 mm 1 mps 759 mmHg 37%
    08:00 +30°C° 0 mm 1 mps 759 mmHg 31%
    09:00 +34°C° 0 mm 2 mps 759 mmHg 25%
    10:00 +36°C° 0 mm 3 mps 759 mmHg 21%
    11:00 +38°C° 0 mm 4 mps 759 mmHg 17%
    12:00 +41°C° 0 mm 5 mps 759 mmHg 13%
    13:00 +42°C° 0 mm 5 mps 759 mmHg 12%
    14:00 +43°C° 0 mm 5 mps 759 mmHg 12%
    15:00 +45°C° 0 mm 6 mps 759 mmHg 11%
    16:00 +44°C° 0 mm 6 mps 759 mmHg 12%
    17:00 +42°C° 0 mm 6 mps 759 mmHg 13%
    18:00 +40°C° 0 mm 6 mps 759 mmHg 13%
    19:00 +37°C° 0 mm 5 mps 760 mmHg 16%
    20:00 +34°C° 0 mm 5 mps 760 mmHg 19%
    21:00 +30°C° 0 mm 4 mps 761 mmHg 21%
    22:00 +29°C° 0 mm 4 mps 761 mmHg 23%
    23:00 +28°C° 0 mm 3 mps 761 mmHg 25%

    Day after tomorrow, 20 August, Tuesday

    Time Temperature Precipitation Wind Pressure Humidity
    00:00 +27°C° 0 mm 3 mps 761 mmHg 27%
    01:00 +26°C° 0 mm 2 mps 761 mmHg 29%
    02:00 +25°C° 0 mm 1 mps 761 mmHg 30%
    03:00 +24°C° 0 mm 1 mps 761 mmHg 32%
    04:00 +25°C° 0 mm 1 mps 762 mmHg 32%
    05:00 +23°C° 0 mm 0 mps 762 mmHg 32%
    06:00 +24°C° 0 mm 0 mps 762 mmHg 32%
    07:00 +27°C° 0 mm 0 mps 762 mmHg 27%
    08:00 +32°C° 0 mm 1 mps 762 mmHg 22%
    09:00 +35°C° 0 mm 1 mps 762 mmHg 17%
    10:00 +37°C° 0 mm 2 mps 761 mmHg 15%
    11:00 +39°C° 0 mm 3 mps 761 mmHg 13%
    12:00 +42°C° 0 mm 3 mps 761 mmHg 11%
    13:00 +43°C° 0 mm 4 mps 760 mmHg 10%
    14:00 +44°C° 0 mm 4 mps 760 mmHg 9%
    15:00 +45°C° 0 mm 5 mps 760 mmHg 8%
    16:00 +43°C° 0 mm 4 mps 760 mmHg 9%
    17:00 +42°C° 0 mm 4 mps 760 mmHg 10%
    18:00 +40°C° 0 mm 3 mps 759 mmHg 11%
    19:00 +37°C° 0 mm 4 mps 760 mmHg 17%
    20:00 +34°C° 0 mm 4 mps 760 mmHg 23%
    21:00 +30°C° 0 mm 5 mps 761 mmHg 29%
    22:00 +29°C° 0 mm 4 mps 761 mmHg 33%
    23:00 +27°C° 0 mm 4 mps 761 mmHg 37%

    21 August, Wednesday

    Time Temperature Precipitation Wind Pressure Humidity
    00:00 +26°C° 0 mm 3 mps 760 mmHg 42%
    01:00 +25°C° 0 mm 2 mps 760 mmHg 43%
    02:00 +25°C° 0 mm 2 mps 760 mmHg 45%
    03:00 +24°C° 0 mm 1 mps 760 mmHg 46%
    04:00 +24°C° 0 mm 1 mps 761 mmHg 47%
    05:00 +24°C° 0 mm 1 mps 761 mmHg 47%
    06:00 +23°C° 0 mm 0 mps 761 mmHg 47%
    07:00 +25°C° 0 mm 0 mps 761 mmHg 40%
    08:00 +30°C° 0 mm 1 mps 761 mmHg 34%
    09:00 +33°C° 0 mm 1 mps 760 mmHg 27%
    10:00 +36°C° 0 mm 2 mps 760 mmHg 22%
    11:00 +38°C° 0 mm 2 mps 759 mmHg 18%
    12:00 +40°C° 0 mm 3 mps 759 mmHg 14%
    13:00 +42°C° 0 mm 4 mps 758 mmHg 13%
    14:00 +43°C° 0 mm 4 mps 758 mmHg 11%
    15:00 +44°C° 0 mm 4 mps 758 mmHg 10%
    16:00 +43°C° 0 mm 4 mps 758 mmHg 11%
    17:00 +42°C° 0 mm 4 mps 758 mmHg 11%
    18:00 +39°C° 0 mm 3 mps 758 mmHg 12%
    19:00 +37°C° 0 mm 4 mps 758 mmHg 15%
    20:00 +34°C° 0 mm 4 mps 758 mmHg 19%
    21:00 +32°C° 0 mm 5 mps 759 mmHg 23%
    22:00 +29°C° 0 mm 4 mps 759 mmHg 28%
    23:00 +28°C° 0 mm 4 mps 759 mmHg 33%

    22 August, Thursday

    Time Temperature Precipitation Wind Pressure Humidity
    00:00 +26°C° 0 mm 3 mps 759 mmHg 38%
    01:00 +26°C° 0 mm 3 mps 759 mmHg 39%
    02:00 +25°C° 0 mm 2 mps 759 mmHg 41%
    03:00 +25°C° 0 mm 2 mps 759 mmHg 43%
    04:00 +25°C° 0 mm 1 mps 759 mmHg 43%
    05:00 +25°C° 0 mm 1 mps 759 mmHg 43%
    06:00 +23°C° 0 mm 0 mps 759 mmHg 43%
    07:00 +28°C° 0 mm 1 mps 759 mmHg 38%
    08:00 +30°C° 0 mm 1 mps 759 mmHg 32%
    09:00 +34°C° 0 mm 2 mps 758 mmHg 26%
    10:00 +36°C° 0 mm 3 mps 758 mmHg 22%
    11:00 +38°C° 0 mm 4 mps 757 mmHg 18%
    12:00 +42°C° 0 mm 4 mps 757 mmHg 14%
    13:00 +42°C° 0 mm 5 mps 756 mmHg 13%
    14:00 +43°C° 0 mm 5 mps 756 mmHg 11%
    15:00 +45°C° 0 mm 6 mps 756 mmHg 10%
    16:00 +44°C° 0 mm 6 mps 756 mmHg 11%
    17:00 +42°C° 0 mm 5 mps 756 mmHg 12%
    18:00 +41°C° 0 mm 5 mps 756 mmHg 13%
    19:00 +37°C° 0 mm 5 mps 756 mmHg 17%
    20:00 +34°C° 0 mm 5 mps 756 mmHg 21%
    21:00 +30°C° 0 mm 4 mps 757 mmHg 26%
    22:00 +29°C° 0 mm 4 mps 757 mmHg 29%
    23:00 +28°C° 0 mm 3 mps 757 mmHg 32%

    23 August, Friday

    Time Temperature Precipitation Wind Pressure Humidity
    00:00 +27°C° 0 mm 3 mps 757 mmHg 35%
    01:00 +26°C° 0 mm 2 mps 757 mmHg 37%
    02:00 +26°C° 0 mm 2 mps 757 mmHg 39%
    03:00 +25°C° 0 mm 2 mps 757 mmHg 41%
    04:00 +25°C° 0 mm 1 mps 757 mmHg 41%
    05:00 +25°C° 0 mm 1 mps 757 mmHg 42%
    06:00 +26°C° 0 mm 1 mps 757 mmHg 42%
    07:00 +28°C° 0 mm 1 mps 757 mmHg 38%
    08:00 +31°C° 0 mm 1 mps 757 mmHg 33%
    09:00 +34°C° 0 mm 2 mps 757 mmHg 28%
    10:00 +36°C° 0 mm 3 mps 756 mmHg 24%
    11:00 +40°C° 0 mm 4 mps 756 mmHg 20%
    12:00 +42°C° 0 mm 5 mps 756 mmHg 16%
    13:00 +43°C° 0 mm 5 mps 755 mmHg 15%
    14:00 +45°C° 0 mm 6 mps 755 mmHg 14%
    15:00 +45°C° 0 mm 6 mps 755 mmHg 12%
    16:00 +44°C° 0 mm 6 mps 755 mmHg 13%
    17:00 +42°C° 0 mm 6 mps 755 mmHg 14%
    18:00 +41°C° 0 mm 6 mps 755 mmHg 15%
    19:00 +38°C° 0 mm 6 mps 756 mmHg 20%
    20:00 +34°C° 0 mm 5 mps 756 mmHg 24%
    21:00 +30°C° 0 mm 4 mps 756 mmHg 29%
    22:00 +29°C° 0 mm 3 mps 757 mmHg 32%
    23:00 +28°C° 0 mm 2 mps 757 mmHg 35%
    Show more